Location: �clusier
(49.9361°N, 2.7869°E)
Time: 16:36:31
(UTC+00:00)

ATLAS CENTAUR R/B - Pass Details

Date: 28 October 2021
Orbit: 452 x 689 km, 64.7° (Epoch: 29 November)

Event Time Altitude Azimuth Distance (km) Brightness Sun altitude
Exits shadow 04:01:31 16° 352° (N) 1,627 3.7 -24.7°
Drops below altitude 10° 04:03:44 10° 21° (NNE) 1,999 4.5 -24.3°
Sets 04:06:56 0° 43° (NE) 2,959 5.8 -23.8°
